EZY696U EGGD-EGAC

Flight info

Callsign EZY696U
Flight time 0h 53m
Altitude 27000
Route BCN P69 DIZIM DCT KISWO DCT AVTIC DCT MONTY UN864 BILVO UP6 TUPEM DCT REMSI DCT NINEB M148 MAGEE
Aircraft A320/M-SDE2E3FGHIJ1RWXYZ/LB1

Departure

Time 2026-05-05 18:58
Airport Bristol Airport (EGGD)

Arrival

Time 2026-05-05 19:51
Airport George Best Belfast City Airport (EGAC)
Time Latitude Longitude Altitude Speed Heading
2026-05-05 18:31 51.38567 -2.70914 625 ft 0 kts 266°
2026-05-05 18:46 51.38567 -2.70912 612 ft 1 kts 266°
2026-05-05 18:47 51.38568 -2.70881 624 ft 4 kts 264°
2026-05-05 18:47 51.38576 -2.70847 621 ft 4 kts 207°
2026-05-05 18:47 51.38598 -2.70841 616 ft 3 kts 176°
2026-05-05 18:47 51.38602 -2.70841 615 ft 0 kts 176°
2026-05-05 18:50 51.38591 -2.70840 624 ft 4 kts 175°
2026-05-05 18:51 51.38579 -2.70838 618 ft 1 kts 176°
2026-05-05 18:51 51.38578 -2.70838 618 ft 0 kts 176°
2026-05-05 18:52 51.38564 -2.70837 618 ft 11 kts 177°
2026-05-05 18:52 51.38490 -2.70834 613 ft 7 kts 188°
2026-05-05 18:52 51.38466 -2.70930 619 ft 15 kts 266°
2026-05-05 18:53 51.38460 -2.71088 615 ft 14 kts 266°
2026-05-05 18:53 51.38454 -2.71236 616 ft 16 kts 266°
2026-05-05 18:53 51.38446 -2.71466 612 ft 25 kts 267°
2026-05-05 18:53 51.38436 -2.71763 610 ft 28 kts 266°
2026-05-05 18:54 51.38430 -2.72074 605 ft 28 kts 266°
2026-05-05 18:54 51.38420 -2.72363 611 ft 24 kts 266°
2026-05-05 18:54 51.38408 -2.72636 620 ft 26 kts 266°
2026-05-05 18:54 51.38397 -2.72937 605 ft 29 kts 266°
2026-05-05 18:55 51.38387 -2.73208 610 ft 13 kts 264°
2026-05-05 18:55 51.38383 -2.73244 611 ft 0 kts 259°
2026-05-05 18:56 51.38373 -2.73284 621 ft 14 kts 239°
2026-05-05 18:56 51.38255 -2.73338 621 ft 15 kts 172°
2026-05-05 18:56 51.38216 -2.73310 629 ft 3 kts 121°
2026-05-05 18:56 51.38214 -2.73259 626 ft 0 kts 88°
2026-05-05 18:57 51.38215 -2.73228 626 ft 13 kts 87°
2026-05-05 18:57 51.38240 -2.72609 636 ft 98 kts 86°
2026-05-05 18:58 51.38298 -2.71130 677 ft 161 kts 81°
2026-05-05 18:58 51.38367 -2.69343 1517 ft 160 kts 83°
2026-05-05 18:58 51.38428 -2.67497 2016 ft 176 kts 82°
2026-05-05 18:58 51.38493 -2.65419 2273 ft 200 kts 83°
2026-05-05 18:59 51.38569 -2.63055 2610 ft 224 kts 83°
2026-05-05 18:59 51.38651 -2.60431 3010 ft 246 kts 84°
2026-05-05 18:59 51.38737 -2.57638 3803 ft 255 kts 84°
2026-05-05 18:59 51.39036 -2.54833 4613 ft 257 kts 62°
2026-05-05 19:00 51.40216 -2.52754 5432 ft 257 kts 27°
2026-05-05 19:00 51.41950 -2.52179 6252 ft 261 kts 353°
2026-05-05 19:00 51.43602 -2.53334 7006 ft 268 kts 318°
2026-05-05 19:00 51.44642 -2.55829 7851 ft 274 kts 296°
2026-05-05 19:01 51.45452 -2.58599 8715 ft 278 kts 295°
2026-05-05 19:01 51.46341 -2.61455 9372 ft 285 kts 298°
2026-05-05 19:01 51.47304 -2.64237 10193 ft 291 kts 301°
2026-05-05 19:01 51.48394 -2.67123 10517 ft 311 kts 303°
2026-05-05 19:02 51.49569 -2.70049 11152 ft 318 kts 303°
2026-05-05 19:02 51.50800 -2.73029 11876 ft 323 kts 304°
2026-05-05 19:02 51.52062 -2.76060 12575 ft 328 kts 303°
2026-05-05 19:02 51.53338 -2.79123 13291 ft 333 kts 303°
2026-05-05 19:03 51.54637 -2.82254 13980 ft 337 kts 303°
2026-05-05 19:03 51.55933 -2.85395 14673 ft 338 kts 303°
2026-05-05 19:03 51.57242 -2.88585 15274 ft 343 kts 303°
2026-05-05 19:03 51.58547 -2.91779 15861 ft 347 kts 302°
2026-05-05 19:04 51.59875 -2.95033 16566 ft 348 kts 302°
2026-05-05 19:04 51.61207 -2.98299 17219 ft 351 kts 302°
2026-05-05 19:04 51.62553 -3.01601 17855 ft 354 kts 302°
2026-05-05 19:04 51.63911 -3.04940 18440 ft 357 kts 302°
2026-05-05 19:05 51.65282 -3.08314 18952 ft 361 kts 302°
2026-05-05 19:05 51.66660 -3.11714 19470 ft 364 kts 302°
2026-05-05 19:05 51.68049 -3.15147 20013 ft 367 kts 302°
2026-05-05 19:05 51.69476 -3.18528 20516 ft 371 kts 307°
2026-05-05 19:06 51.71327 -3.21453 21015 ft 377 kts 321°
2026-05-05 19:06 51.73641 -3.23596 21508 ft 383 kts 336°
2026-05-05 19:06 51.76192 -3.24712 21984 ft 389 kts 351°
2026-05-05 19:06 51.78920 -3.24748 22464 ft 396 kts
2026-05-05 19:07 51.81659 -3.24091 22932 ft 399 kts
2026-05-05 19:07 51.84419 -3.23406 23411 ft 402 kts
2026-05-05 19:07 51.87203 -3.22710 23836 ft 405 kts
2026-05-05 19:07 51.90008 -3.22008 24241 ft 407 kts
2026-05-05 19:08 51.92784 -3.21316 24633 ft 409 kts
2026-05-05 19:08 51.95608 -3.20617 25033 ft 411 kts
2026-05-05 19:08 51.98451 -3.19919 25428 ft 413 kts
2026-05-05 19:08 52.01306 -3.19218 25834 ft 414 kts
2026-05-05 19:09 52.04166 -3.18566 26270 ft 414 kts
2026-05-05 19:09 52.07020 -3.18309 26677 ft 415 kts
2026-05-05 19:09 52.09910 -3.18082 26963 ft 416 kts
2026-05-05 19:09 52.12789 -3.17856 27016 ft 405 kts
2026-05-05 19:10 52.15565 -3.17642 27021 ft 393 kts
2026-05-05 19:10 52.18252 -3.17438 27021 ft 390 kts
2026-05-05 19:10 52.20968 -3.17233 27021 ft 389 kts
2026-05-05 19:10 52.23679 -3.17028 27021 ft 389 kts
2026-05-05 19:11 52.26393 -3.16823 27026 ft 389 kts
2026-05-05 19:11 52.29107 -3.16615 27024 ft 389 kts
2026-05-05 19:11 52.31780 -3.16409 27024 ft 389 kts
2026-05-05 19:11 52.34486 -3.16197 27024 ft 389 kts
2026-05-05 19:12 52.37197 -3.15987 27023 ft 389 kts
2026-05-05 19:12 52.39908 -3.15778 27022 ft 389 kts
2026-05-05 19:12 52.42614 -3.15568 27021 ft 389 kts
2026-05-05 19:12 52.45319 -3.15352 27022 ft 389 kts
2026-05-05 19:13 52.48022 -3.15136 27021 ft 389 kts
2026-05-05 19:13 52.50694 -3.14923 27020 ft 389 kts
2026-05-05 19:13 52.53405 -3.14712 27015 ft 390 kts
2026-05-05 19:13 52.56114 -3.14502 27013 ft 390 kts
2026-05-05 19:14 52.58832 -3.14293 27015 ft 390 kts
2026-05-05 19:14 52.61554 -3.14084 27016 ft 391 kts
2026-05-05 19:14 52.64271 -3.13872 27015 ft 391 kts
2026-05-05 19:14 52.66991 -3.13659 27016 ft 391 kts
2026-05-05 19:15 52.69711 -3.13444 27019 ft 391 kts
2026-05-05 19:15 52.72431 -3.13459 27031 ft 389 kts 353°
2026-05-05 19:15 52.75082 -3.14037 27029 ft 388 kts 349°
2026-05-05 19:15 52.77762 -3.14672 27025 ft 389 kts 349°
2026-05-05 19:16 52.80440 -3.15307 27025 ft 389 kts 349°
2026-05-05 19:16 52.83118 -3.15944 27018 ft 389 kts 349°
2026-05-05 19:16 52.85780 -3.16578 27025 ft 389 kts 349°
2026-05-05 19:16 52.88463 -3.17193 27018 ft 389 kts 352°
2026-05-05 19:17 52.91182 -3.17276 27029 ft 391 kts
2026-05-05 19:17 52.93899 -3.17055 27033 ft 392 kts
2026-05-05 19:17 52.96624 -3.16835 27040 ft 392 kts
2026-05-05 19:17 52.99351 -3.16616 27040 ft 392 kts
2026-05-05 19:18 53.02087 -3.16396 27027 ft 393 kts
2026-05-05 19:18 53.04788 -3.16181 27026 ft 393 kts
2026-05-05 19:18 53.07527 -3.15962 27032 ft 393 kts
2026-05-05 19:18 53.10260 -3.15743 27037 ft 393 kts
2026-05-05 19:19 53.12077 -3.15596 27029 ft 393 kts
2026-05-05 19:19 53.14818 -3.15376 27040 ft 393 kts
2026-05-05 19:19 53.17555 -3.15157 27041 ft 394 kts
2026-05-05 19:19 53.20297 -3.14944 27042 ft 394 kts 360°
2026-05-05 19:20 53.23038 -3.14728 27048 ft 394 kts 360°
2026-05-05 19:20 53.25778 -3.14508 27043 ft 394 kts 360°
2026-05-05 19:20 53.28491 -3.14293 27039 ft 395 kts 360°
2026-05-05 19:20 53.31234 -3.14075 27034 ft 395 kts 360°
2026-05-05 19:21 53.33983 -3.13856 27038 ft 395 kts 359°
2026-05-05 19:21 53.36735 -3.13642 27030 ft 395 kts 359°
2026-05-05 19:21 53.39487 -3.13525 27037 ft 393 kts 354°
2026-05-05 19:21 53.42207 -3.13902 27032 ft 392 kts 352°
2026-05-05 19:22 53.44896 -3.14311 27014 ft 392 kts 352°
2026-05-05 19:22 53.47614 -3.14714 27021 ft 392 kts 352°
2026-05-05 19:22 53.50338 -3.15114 27021 ft 392 kts 352°
2026-05-05 19:22 53.53063 -3.15517 27022 ft 392 kts 352°
2026-05-05 19:23 53.55787 -3.15924 27015 ft 392 kts 352°
2026-05-05 19:23 53.58510 -3.16334 27024 ft 392 kts 352°
2026-05-05 19:23 53.61237 -3.16748 27021 ft 392 kts 352°
2026-05-05 19:23 53.63930 -3.17164 27020 ft 392 kts 352°
2026-05-05 19:24 53.66650 -3.17589 27022 ft 392 kts 351°
2026-05-05 19:24 53.69307 -3.18495 27034 ft 387 kts 339°
2026-05-05 19:24 53.71769 -3.20301 27057 ft 382 kts 327°
2026-05-05 19:24 53.73927 -3.22862 27047 ft 378 kts 315°
2026-05-05 19:25 53.75711 -3.26017 27050 ft 374 kts 305°
2026-05-05 19:25 53.77140 -3.29674 27044 ft 372 kts 299°
2026-05-05 19:25 53.78489 -3.33409 27038 ft 373 kts 299°
2026-05-05 19:25 53.79837 -3.37160 27035 ft 373 kts 299°
2026-05-05 19:26 53.81182 -3.40915 27034 ft 373 kts 299°
2026-05-05 19:26 53.82531 -3.44679 27033 ft 373 kts 299°
2026-05-05 19:26 53.83881 -3.48441 27032 ft 373 kts 299°
2026-05-05 19:26 53.85231 -3.52203 27031 ft 374 kts 299°
2026-05-05 19:27 53.86582 -3.55970 27029 ft 374 kts 299°
2026-05-05 19:27 53.87918 -3.59696 27035 ft 374 kts 299°
2026-05-05 19:27 53.89269 -3.63469 27035 ft 374 kts 299°
2026-05-05 19:27 53.90617 -3.67252 27027 ft 374 kts 299°
2026-05-05 19:28 53.91959 -3.71034 27028 ft 374 kts 299°
2026-05-05 19:28 53.93295 -3.74811 27033 ft 373 kts 299°
2026-05-05 19:28 53.94629 -3.78585 27052 ft 373 kts 299°
2026-05-05 19:28 53.95953 -3.82325 27051 ft 373 kts 299°
2026-05-05 19:29 53.97274 -3.86112 27053 ft 373 kts 298°
2026-05-05 19:29 53.98569 -3.89919 27041 ft 372 kts 298°
2026-05-05 19:29 53.99855 -3.93750 27046 ft 372 kts 298°
2026-05-05 19:29 54.01132 -3.97580 27041 ft 372 kts 298°
2026-05-05 19:30 54.02412 -4.01416 27046 ft 372 kts 298°
2026-05-05 19:30 54.03697 -4.05259 27039 ft 372 kts 298°
2026-05-05 19:30 54.04982 -4.09094 27052 ft 372 kts 298°
2026-05-05 19:30 54.06281 -4.12903 27048 ft 372 kts 301°
2026-05-05 19:31 54.07773 -4.16526 27047 ft 373 kts 303°
2026-05-05 19:31 54.09262 -4.20099 27051 ft 378 kts 303°
2026-05-05 19:31 54.10806 -4.23823 27002 ft 383 kts 303°
2026-05-05 19:31 54.12330 -4.27506 26287 ft 376 kts 303°
2026-05-05 19:32 54.13827 -4.31132 25453 ft 371 kts 303°
2026-05-05 19:32 54.15262 -4.34608 24993 ft 356 kts 303°
2026-05-05 19:32 54.16662 -4.38002 24546 ft 342 kts 303°
2026-05-05 19:32 54.18007 -4.41267 24104 ft 330 kts 303°
2026-05-05 19:33 54.19308 -4.44426 23672 ft 319 kts 303°
2026-05-05 19:33 54.20565 -4.47487 23204 ft 309 kts 303°
2026-05-05 19:33 54.21790 -4.50474 22798 ft 307 kts 303°
2026-05-05 19:33 54.23016 -4.53468 22396 ft 307 kts 303°
2026-05-05 19:34 54.24240 -4.56461 21989 ft 306 kts 303°
2026-05-05 19:34 54.25438 -4.59399 21604 ft 305 kts 303°
2026-05-05 19:34 54.26651 -4.62373 21214 ft 304 kts 303°
2026-05-05 19:35 54.29060 -4.68292 20430 ft 302 kts 303°
2026-05-05 19:35 54.30262 -4.71252 20041 ft 301 kts 303°
2026-05-05 19:35 54.31440 -4.74157 19663 ft 301 kts 303°
2026-05-05 19:35 54.32637 -4.77106 19274 ft 301 kts 303°
2026-05-05 19:36 54.33827 -4.80047 18883 ft 301 kts 303°
2026-05-05 19:36 54.35022 -4.83005 18504 ft 301 kts 303°
2026-05-05 19:36 54.36211 -4.85952 18094 ft 301 kts 303°
2026-05-05 19:36 54.37402 -4.88902 17705 ft 299 kts 303°
2026-05-05 19:37 54.38587 -4.91831 17327 ft 298 kts 303°
2026-05-05 19:37 54.39747 -4.94711 16966 ft 297 kts 303°
2026-05-05 19:37 54.40919 -4.97632 16590 ft 296 kts 303°
2026-05-05 19:37 54.42087 -5.00545 16228 ft 295 kts 303°
2026-05-05 19:38 54.43252 -5.03452 15861 ft 294 kts 303°
2026-05-05 19:38 54.44415 -5.06354 15498 ft 294 kts 303°
2026-05-05 19:38 54.45564 -5.09206 15137 ft 293 kts 304°
2026-05-05 19:38 54.46731 -5.12085 14766 ft 293 kts 304°
2026-05-05 19:39 54.47900 -5.14966 14408 ft 293 kts 304°
2026-05-05 19:39 54.49054 -5.17818 14047 ft 292 kts 303°
2026-05-05 19:39 54.49981 -5.20915 13655 ft 291 kts 289°
2026-05-05 19:39 54.50378 -5.24318 13264 ft 291 kts 274°
2026-05-05 19:40 54.50238 -5.27789 12863 ft 291 kts 263°
2026-05-05 19:40 54.49928 -5.31226 12466 ft 291 kts 263°
2026-05-05 19:40 54.49622 -5.34670 12064 ft 290 kts 263°
2026-05-05 19:40 54.49316 -5.38110 11659 ft 290 kts 263°
2026-05-05 19:41 54.49018 -5.41490 11257 ft 290 kts 263°
2026-05-05 19:41 54.48717 -5.44927 10847 ft 290 kts 263°
2026-05-05 19:41 54.48412 -5.48378 10480 ft 289 kts 263°
2026-05-05 19:41 54.48113 -5.51733 10272 ft 281 kts 263°
2026-05-05 19:42 54.47815 -5.55035 9630 ft 279 kts 263°
2026-05-05 19:42 54.47522 -5.58292 9143 ft 270 kts 263°
2026-05-05 19:42 54.47243 -5.61383 8743 ft 260 kts 263°
2026-05-05 19:42 54.46969 -5.64407 8365 ft 254 kts 263°
2026-05-05 19:43 54.46697 -5.67425 7954 ft 255 kts 264°
2026-05-05 19:43 54.46427 -5.70460 7551 ft 256 kts 264°
2026-05-05 19:43 54.46153 -5.73496 7134 ft 258 kts 263°
2026-05-05 19:43 54.45873 -5.76563 6690 ft 260 kts 264°
2026-05-05 19:44 54.45588 -5.79653 6241 ft 262 kts 263°
2026-05-05 19:44 54.45301 -5.82758 5763 ft 264 kts 262°
2026-05-05 19:44 54.44950 -5.85848 5245 ft 269 kts 255°
2026-05-05 19:44 54.44283 -5.88878 4720 ft 272 kts 249°
2026-05-05 19:45 54.43549 -5.91880 4166 ft 269 kts 249°
2026-05-05 19:45 54.42824 -5.94795 3659 ft 264 kts 252°
2026-05-05 19:45 54.42479 -5.97876 3157 ft 263 kts 268°
2026-05-05 19:45 54.42479 -6.00886 3013 ft 247 kts 285°
2026-05-05 19:46 54.43192 -6.03426 2891 ft 229 kts 313°
2026-05-05 19:46 54.44416 -6.04995 2800 ft 216 kts 340°
2026-05-05 19:46 54.45855 -6.05376 2802 ft 204 kts
2026-05-05 19:46 54.47158 -6.04674 2800 ft 194 kts 30°
2026-05-05 19:47 54.48260 -6.03386 2806 ft 189 kts 33°
2026-05-05 19:47 54.49297 -6.02153 2819 ft 172 kts 33°
2026-05-05 19:47 54.50245 -6.01028 2677 ft 164 kts 32°
2026-05-05 19:47 54.51151 -5.99952 2487 ft 153 kts 32°
2026-05-05 19:48 54.52007 -5.98936 2289 ft 146 kts 32°
2026-05-05 19:48 54.52826 -5.97963 2112 ft 141 kts 32°
2026-05-05 19:48 54.53629 -5.97009 1916 ft 139 kts 32°
2026-05-05 19:48 54.54417 -5.96071 1736 ft 136 kts 32°
2026-05-05 19:49 54.55183 -5.95160 1532 ft 133 kts 31°
2026-05-05 19:49 54.55681 -5.94566 1417 ft 131 kts 31°
2026-05-05 19:49 54.56687 -5.93369 1162 ft 131 kts 31°
2026-05-05 19:49 54.57436 -5.92475 974 ft 130 kts 31°
2026-05-05 19:50 54.58189 -5.91578 781 ft 134 kts 31°
2026-05-05 19:50 54.58951 -5.90669 600 ft 134 kts 33°
2026-05-05 19:50 54.59718 -5.89746 406 ft 135 kts 32°
2026-05-05 19:50 54.60479 -5.88833 235 ft 132 kts 32°
2026-05-05 19:51 54.61225 -5.87945 47 ft 129 kts 32°
2026-05-05 19:51 54.61899 -5.87145 19 ft 95 kts 35°
2026-05-05 19:51 54.62309 -5.86664 20 ft 44 kts 31°
2026-05-05 19:51 54.62446 -5.86529 21 ft 7 kts 27°
2026-05-05 19:52 54.62427 -5.86505 21 ft 9 kts 204°
2026-05-05 19:52 54.62371 -5.86575 22 ft 9 kts 218°
2026-05-05 19:52 54.62279 -5.86692 21 ft 22 kts 215°
2026-05-05 19:52 54.62149 -5.86850 17 ft 26 kts 214°
2026-05-05 19:53 54.61993 -5.87036 16 ft 28 kts 215°
2026-05-05 19:53 54.61861 -5.87180 19 ft 14 kts 190°
2026-05-05 19:53 54.61795 -5.87083 19 ft 11 kts 126°
2026-05-05 19:53 54.61755 -5.86995 21 ft 9 kts 143°
2026-05-05 19:54 54.61680 -5.87044 21 ft 16 kts 215°
2026-05-05 19:54 54.61594 -5.87149 21 ft 13 kts 215°
2026-05-05 19:54 54.61553 -5.87183 21 ft 5 kts 176°
2026-05-05 19:54 54.61508 -5.87151 23 ft 0 kts 158°
2026-05-05 19:55 54.61499 -5.87145 23 ft 0 kts 156°